User: anonymous   Login
Location: NJAA Observatory
(40.6819°N, 74.8979°W)
Time: 01:54:04
(UTC-05:00)
Language:

ALOS - Orbit

View from above orbital plane
View from above orbital plane
View from above satellite
View from above satellite

Ground track
Ground track

The orbit data is extracted from the following two-line orbital elements,

1 28931U 06002A   16345.21576324  .00000282  00000-0  64531-4 0  9995
2 28931  97.8647  15.8296 0001359 127.4141 232.7185 14.62287283579849
Epoch (UTC): 10 December 2016 05:10:41
Eccentricity: 0.0001359
inclination: 97.8647°
perigee height: 685 km
apogee height: 687 km
right ascension of ascending node: 15.8296°
argument of perigee: 127.4141°
revolutions per day: 14.62287283
mean anomaly at epoch: 232.7185°
orbit number at epoch: 57984

The dashed part of the orbit path shows where the satellite is in the earth's shadow,  

DLR